When you browse on this site, cookies collect data to enhance your experience and personalize the content and advertising you see.
Visit our Privacy Policy to learn more. By continuing to use the site, you agree to this use of cookies and data.
  • In Latvia
  • List of Countries
  • For 7 days
  • Water Temperature
  • Satellite Maps
  • Weather Map
  • Weather Widgets
  • user-avatar
    Login

    Hourly Weather Pocholaje

    Today, 22 May, Wednesday

    Time Temperature Precipitation Wind Pressure Humidity
    00:00 +13°C° 2.2 mm 6 mps 737 mmHg 93%
    01:00 +13°C° 2.2 mm 6 mps 736 mmHg 93%
    02:00 +13°C° 0 mm 5 mps 736 mmHg 94%
    03:00 +13°C° 1 mm 5 mps 736 mmHg 94%
    04:00 +13°C° 1 mm 5 mps 736 mmHg 93%
    05:00 +13°C° 1 mm 5 mps 736 mmHg 93%
    06:00 +13°C° 1 mm 5 mps 736 mmHg 93%
    07:00 +13°C° 1 mm 5 mps 736 mmHg 93%
    08:00 +13°C° 0 mm 5 mps 736 mmHg 92%
    09:00 +14°C° 0.2 mm 5 mps 736 mmHg 89%
    10:00 +15°C° 0.2 mm 6 mps 737 mmHg 85%
    11:00 +16°C° 0.2 mm 6 mps 737 mmHg 82%
    12:00 +17°C° 0.6 mm 6 mps 737 mmHg 81%
    13:00 +17°C° 0.6 mm 6 mps 737 mmHg 79%
    14:00 +19°C° 0.6 mm 6 mps 737 mmHg 78%
    15:00 +19°C° 0.7 mm 5 mps 737 mmHg 79%
    16:00 +19°C° 0.7 mm 5 mps 737 mmHg 79%
    17:00 +19°C° 0.7 mm 4 mps 737 mmHg 80%
    18:00 +17°C° 0.6 mm 4 mps 737 mmHg 83%
    19:00 +16°C° 0.6 mm 3 mps 737 mmHg 87%
    20:00 +15°C° 0.6 mm 2 mps 737 mmHg 90%
    21:00 +14°C° 0.1 mm 2 mps 737 mmHg 91%
    22:00 +14°C° 0.1 mm 2 mps 737 mmHg 93%
    23:00 +13°C° 0.1 mm 2 mps 738 mmHg 94%

    Tomorrow, 23 May, Thursday

    Time Temperature Precipitation Wind Pressure Humidity
    00:00 +12°C° 0 mm 2 mps 738 mmHg 95%
    01:00 +12°C° 0 mm 2 mps 738 mmHg 95%
    02:00 +12°C° 0 mm 2 mps 738 mmHg 95%
    03:00 +12°C° 0 mm 2 mps 738 mmHg 95%
    04:00 +12°C° 0 mm 1 mps 738 mmHg 95%
    05:00 +12°C° 0 mm 1 mps 739 mmHg 95%
    06:00 +13°C° 0 mm 1 mps 739 mmHg 93%
    07:00 +15°C° 0 mm 1 mps 739 mmHg 91%
    08:00 +16°C° 0 mm 1 mps 739 mmHg 88%
    09:00 +18°C° 0.8 mm 1 mps 740 mmHg 85%
    10:00 +19°C° 0.8 mm 1 mps 740 mmHg 83%
    11:00 +20°C° 0.8 mm 1 mps 740 mmHg 80%
    12:00 +20°C° 1.8 mm 1 mps 740 mmHg 78%
    13:00 +21°C° 1.8 mm 1 mps 740 mmHg 76%
    14:00 +21°C° 1.8 mm 1 mps 740 mmHg 74%
    15:00 +21°C° 1.6 mm 1 mps 740 mmHg 74%
    16:00 +20°C° 1.6 mm 2 mps 740 mmHg 75%
    17:00 +20°C° 1.6 mm 2 mps 740 mmHg 76%
    18:00 +19°C° 0.3 mm 2 mps 740 mmHg 81%
    19:00 +18°C° 0.3 mm 3 mps 740 mmHg 86%
    20:00 +16°C° 0.3 mm 3 mps 740 mmHg 91%
    21:00 +16°C° 1.2 mm 3 mps 741 mmHg 93%
    22:00 +14°C° 1.2 mm 3 mps 741 mmHg 95%
    23:00 +14°C° 1.2 mm 3 mps 741 mmHg 97%

    Day after tomorrow, 24 May, Friday

    Time Temperature Precipitation Wind Pressure Humidity
    00:00 +15°C° 0.4 mm 2 mps 741 mmHg 97%
    01:00 +14°C° 0.4 mm 2 mps 741 mmHg 97%
    02:00 +14°C° 0.4 mm 2 mps 741 mmHg 97%
    03:00 +14°C° 0.3 mm 2 mps 741 mmHg 97%
    04:00 +13°C° 0.3 mm 3 mps 741 mmHg 97%
    05:00 +14°C° 0.3 mm 3 mps 741 mmHg 97%
    06:00 +14°C° 0.1 mm 3 mps 741 mmHg 96%
    07:00 +15°C° 0.1 mm 4 mps 742 mmHg 94%
    08:00 +15°C° 0.1 mm 4 mps 742 mmHg 93%
    09:00 +15°C° 0.2 mm 4 mps 742 mmHg 92%
    10:00 +15°C° 0.2 mm 4 mps 742 mmHg 91%
    11:00 +15°C° 0.2 mm 4 mps 742 mmHg 89%
    12:00 +17°C° 0 mm 4 mps 742 mmHg 87%
    13:00 +17°C° 0 mm 4 mps 742 mmHg 84%
    14:00 +18°C° 0 mm 4 mps 742 mmHg 82%
    15:00 +18°C° 0 mm 4 mps 741 mmHg 81%
    16:00 +18°C° 0 mm 4 mps 741 mmHg 81%
    17:00 +18°C° 0 mm 4 mps 741 mmHg 80%
    18:00 +18°C° 0 mm 3 mps 741 mmHg 83%
    19:00 +17°C° 0 mm 2 mps 741 mmHg 85%
    20:00 +17°C° 0 mm 2 mps 741 mmHg 87%
    21:00 +16°C° 0 mm 2 mps 741 mmHg 89%
    22:00 +15°C° 0 mm 2 mps 741 mmHg 91%
    23:00 +15°C° 0 mm 2 mps 741 mmHg 93%

    25 May, Saturday

    Time Temperature Precipitation Wind Pressure Humidity
    00:00 +14°C° 0 mm 2 mps 741 mmHg 94%
    01:00 +14°C° 0 mm 2 mps 741 mmHg 94%
    02:00 +13°C° 0 mm 2 mps 741 mmHg 95%
    03:00 +13°C° 0 mm 2 mps 741 mmHg 95%
    04:00 +13°C° 0 mm 2 mps 741 mmHg 95%
    05:00 +12°C° 0 mm 2 mps 741 mmHg 94%
    06:00 +14°C° 0 mm 2 mps 741 mmHg 89%
    07:00 +14°C° 0 mm 3 mps 741 mmHg 84%
    08:00 +16°C° 0 mm 3 mps 741 mmHg 79%
    09:00 +17°C° 0 mm 3 mps 742 mmHg 72%
    10:00 +19°C° 0 mm 3 mps 742 mmHg 65%
    11:00 +20°C° 0 mm 3 mps 742 mmHg 59%
    12:00 +21°C° 0 mm 3 mps 742 mmHg 59%
    13:00 +21°C° 0 mm 3 mps 741 mmHg 58%
    14:00 +22°C° 0 mm 3 mps 741 mmHg 58%
    15:00 +22°C° 0.2 mm 3 mps 741 mmHg 61%
    16:00 +21°C° 0.2 mm 3 mps 741 mmHg 65%
    17:00 +21°C° 0.2 mm 3 mps 741 mmHg 68%
    18:00 +20°C° 0.1 mm 3 mps 741 mmHg 73%
    19:00 +18°C° 0.1 mm 3 mps 741 mmHg 77%
    20:00 +17°C° 0.1 mm 2 mps 741 mmHg 82%
    21:00 +16°C° 0 mm 2 mps 741 mmHg 84%
    22:00 +15°C° 0 mm 2 mps 742 mmHg 87%
    23:00 +14°C° 0 mm 2 mps 742 mmHg 89%

    26 May, Sunday

    Time Temperature Precipitation Wind Pressure Humidity
    00:00 +14°C° 0 mm 2 mps 742 mmHg 91%
    01:00 +13°C° 0 mm 2 mps 742 mmHg 92%
    02:00 +13°C° 0 mm 2 mps 742 mmHg 94%
    03:00 +12°C° 0 mm 2 mps 742 mmHg 94%
    04:00 +12°C° 0 mm 2 mps 742 mmHg 94%
    05:00 +12°C° 0 mm 2 mps 742 mmHg 95%
    06:00 +13°C° 0 mm 2 mps 742 mmHg 91%
    07:00 +15°C° 0 mm 2 mps 742 mmHg 87%
    08:00 +16°C° 0 mm 2 mps 742 mmHg 84%
    09:00 +18°C° 0.3 mm 2 mps 742 mmHg 80%
    10:00 +19°C° 0.3 mm 3 mps 742 mmHg 77%
    11:00 +20°C° 0.3 mm 3 mps 742 mmHg 73%
    12:00 +20°C° 1.1 mm 3 mps 741 mmHg 75%
    13:00 +20°C° 1.1 mm 4 mps 741 mmHg 77%
    14:00 +20°C° 1.1 mm 4 mps 741 mmHg 79%
    15:00 +19°C° 1.3 mm 4 mps 740 mmHg 82%
    16:00 +18°C° 1.3 mm 3 mps 740 mmHg 84%
    17:00 +18°C° 1.3 mm 3 mps 740 mmHg 87%
    18:00 +17°C° 0.2 mm 3 mps 740 mmHg 87%
    19:00 +16°C° 0.2 mm 2 mps 740 mmHg 86%
    20:00 +15°C° 0.2 mm 2 mps 741 mmHg 86%
    21:00 +14°C° 0 mm 2 mps 741 mmHg 85%
    22:00 +13°C° 0 mm 2 mps 741 mmHg 84%
    23:00 +12°C° 0 mm 2 mps 742 mmHg 83%

    27 May, Monday

    Time Temperature Precipitation Wind Pressure Humidity
    00:00 +12°C° 0 mm 2 mps 742 mmHg 84%
    01:00 +10°C° 0 mm 2 mps 742 mmHg 85%
    02:00 +9°C° 0 mm 2 mps 743 mmHg 86%
    03:00 +9°C° 0 mm 2 mps 743 mmHg 88%
    04:00 +9°C° 0 mm 2 mps 743 mmHg 90%
    05:00 +8°C° 0 mm 2 mps 743 mmHg 93%
    06:00 +10°C° 0 mm 2 mps 743 mmHg 87%
    07:00 +12°C° 0 mm 2 mps 743 mmHg 82%
    08:00 +14°C° 0 mm 2 mps 744 mmHg 77%
    09:00 +15°C° 0 mm 2 mps 744 mmHg 73%
    10:00 +16°C° 0 mm 2 mps 743 mmHg 69%
    11:00 +18°C° 0 mm 2 mps 743 mmHg 65%
    12:00 +19°C° 0 mm 2 mps 743 mmHg 63%
    13:00 +20°C° 0 mm 2 mps 743 mmHg 60%
    14:00 +21°C° 0 mm 2 mps 743 mmHg 57%
    15:00 +21°C° 0 mm 2 mps 742 mmHg 58%
    16:00 +21°C° 0 mm 2 mps 742 mmHg 59%
    17:00 +22°C° 0 mm 1 mps 741 mmHg 61%
    18:00 +20°C° 0 mm 2 mps 741 mmHg 67%
    19:00 +19°C° 0 mm 2 mps 741 mmHg 73%
    20:00 +17°C° 0 mm 2 mps 740 mmHg 80%
    21:00 +17°C° 0.2 mm 2 mps 740 mmHg 82%
    22:00 +16°C° 0.2 mm 3 mps 740 mmHg 83%
    23:00 +16°C° 0.2 mm 3 mps 740 mmHg 85%
    Show more